[[{"header":{"parameterUnit":"m.s-1","parameterCategory":1,"la1":30.2991,"la2":30.254,"lo1":-89.0895,"lo2":-89.0444,"dy":0.0017,"dx":0.0017,"nx":28,"ny":28,"refTime":"2024-12-25T09:00:00:Z","depth":0,"parameterNumber":2,"parameterNumberName":"U-component_of_WINDS"},"data":[0,0,0,0,0,0,0,0,0,0,0,0,0,0,0,0,0,0,0,0,0,0,0,0,0,0,0,0,0,0,0,0,0,0,0,0,0,0,0,0,0,0,0,0,0,0,0,0,0,0,0,0,0,0,0,0,0,0,-5.0605,-5.0606,0,-5.0659,-5.0659,-5.066,-5.0585,-5.0582,-5.0579,-5.0577,-5.0632,-5.0635,-5.0639,0,0,0,0,0,0,0,0,0,0,0,0,0,-5.0439,-5.0443,-5.0605,-5.0606,-5.0607,-5.0659,-5.0659,-5.066,-5.0585,-5.0582,-5.0579,-5.0576,-5.063,-5.0635,-5.064,0,0,0,0,0,0,0,0,0,0,0,0,0,-5.0504,-5.0444,-5.0605,-5.0576,-5.0573,-5.0659,-5.066,-5.066,-5.0586,-5.0582,-5.0578,-5.0574,-5.0629,-5.0634,-5.064,-5.0757,0,0,-5.0658,-5.0661,0,0,0,0,0,0,0,0,-5.0501,-5.051,-5.0579,-5.0578,-5.0576,-5.0611,-5.0621,-5.0693,-5.0587,-5.0581,-5.0577,-5.0572,-5.0628,-5.0634,-5.0653,-5.076,-5.0762,-5.0659,-5.0663,-5.0665,-5.0667,0,0,0,0,0,0,0,-5.0496,-5.0508,-5.0626,-5.058,-5.0578,-5.056,-5.0565,-5.0634,-5.0626,-5.0581,-5.0576,-5.0583,-5.0626,-5.0647,-5.0653,-5.0763,-5.0659,-5.0664,-5.0668,-5.067,-5.097,-5.0974,0,0,0,0,0,0,-5.0495,-5.0504,-5.0625,-5.0628,-5.0527,-5.0566,-5.0571,-5.0604,-5.0625,-5.0625,-5.0587,-5.058,-5.0639,-5.0646,-5.0655,-5.0793,-5.0665,-5.0671,-5.0674,-5.0966,-5.0971,-5.0976,0,0,0,0,0,0,-5.0492,-5.0507,-5.0623,-5.0565,-5.0578,-5.0573,-5.061,-5.0607,-5.0627,-5.0629,-5.0628,-5.0609,-5.0636,-5.0647,-5.0733,-5.0794,-5.0673,-5.0679,-5.096,-5.0967,-5.0973,-5.1071,0,0,0,0,0,0,-5.0487,-5.0506,-5.055,-5.0566,-5.0582,-5.0699,-5.0614,-5.0611,-5.0638,-5.0629,-5.065,-5.065,-5.0634,-5.0724,-5.0738,-5.08,-5.0683,-5.0955,-5.0963,-5.0971,-5.1062,-5.108,-5.1095,0,0,0,0,0,-5.0482,-5.0575,-5.0552,-5.0567,-5.0636,-5.0703,-5.0712,-5.0691,-5.0643,-5.0687,-5.0689,-5.0649,-5.0786,-5.0734,-5.0749,-5.0813,-5.0951,-5.0961,-5.0971,-5.1055,-5.1077,-5.1095,0,0,0,0,0,0,-5.0565,-5.0576,-5.0551,-5.0653,-5.0678,-5.069,-5.0745,-5.0715,-5.0753,-5.0743,-5.0716,-5.0722,-5.0814,-5.0822,-5.0764,-5.0928,-5.086,-5.0874,-5.0919,-5.094,-5.0956,-5.0951,-5.0688,0,0,0,0,0,-5.0595,-5.0648,-5.0655,-5.0744,-5.0758,-5.075,-5.0778,-5.076,-5.0785,-5.0795,-5.0802,-5.0828,-5.0876,-5.0909,-5.0953,-5.1064,-5.1068,-5.1116,-5.1133,-5.1146,-5.1158,-5.1217,-5.1239,-5.1008,-5.1008,-5.1008,0,0,-5.0658,-5.0671,-5.0706,-5.0761,-5.0778,-5.0834,-5.0759,-5.0821,-5.0862,-5.0804,-5.0885,-5.0893,-5.0919,-5.1018,-5.1062,-5.1028,-5.1223,-5.1159,-5.117,-5.1174,-5.123,-5.1252,-5.1271,-5.1015,-5.1014,-5.1013,0,0,-5.08,-5.0815,-5.0891,-5.091,-5.0937,-5.0932,-5.095,-5.0968,-5.0971,-5.1052,-5.101,-5.106,-5.1144,-5.1164,-5.1186,-5.134,-5.1305,-5.1355,-5.1441,-5.15,-5.1518,-5.1534,-5.1588,-5.1608,-5.1367,-5.1367,-5.1368,0,-5.0874,-5.0956,-5.0934,-5.0999,-5.1025,-5.0976,-5.1053,-5.1073,-5.1113,-5.1133,-5.1094,-5.12,-5.1214,-5.1318,-5.1355,-5.1375,-5.1395,-5.1352,-5.1517,-5.1533,-5.1548,-5.1599,-5.162,-5.1373,-5.1373,-5.1372,-5.1371,0,-5.1046,-5.1104,-5.1162,-5.1203,-5.1236,-5.1306,-5.1295,-5.1331,-5.1312,-5.1311,-5.1395,-5.1412,-5.1459,-5.1483,-5.1464,-5.1584,-5.1562,-5.1522,-5.1452,-5.1576,-5.1624,-5.1644,-5.1382,-5.138,-5.1378,-5.1376,0,0,-5.1239,-5.1269,-5.129,-5.1309,-5.1336,-5.1381,-5.1451,-5.1497,-5.1529,-5.156,-5.1617,-5.1691,-5.1653,-5.1678,-5.1662,-5.1713,-5.1834,-5.1666,-5.1666,-5.1696,-5.1968,-5.1997,-5.2021,-5.1812,-5.1816,-5.1819,-5.1965,0,-5.138,-5.15,-5.1483,-5.1598,-5.1652,-5.1608,-5.1669,-5.1693,-5.1694,-5.174,-5.1742,-5.1794,-5.1741,-5.1756,-5.1806,-5.1809,-5.1888,-5.1798,-5.1865,-5.1868,-5.1858,-5.2046,-5.2077,-5.2214,-5.1984,-5.1987,-5.199,0,-5.1561,-5.1598,-5.1719,-5.174,-5.1762,-5.1817,-5.1859,-5.1904,-5.1931,-5.1928,-5.1958,-5.1933,-5.2003,-5.1934,-5.2031,-5.197,-5.1997,-5.2003,-5.2008,-5.2012,-5.1935,-5.2054,-5.2258,-5.2278,-5.2019,-5.2017,-5.2015,0,-5.1689,-5.177,-5.1853,-5.187,-5.1897,-5.1936,-5.1949,-5.1972,-5.2002,-5.204,-5.2059,-5.2105,-5.213,-5.2166,-5.2154,-5.2105,-5.2253,-5.2183,-5.2253,-5.2254,-5.2284,-5.2282,-5.2494,-5.2305,-5.2304,-5.2304,-5.2303,0,-5.1847,-5.1923,-5.1911,-5.1961,-5.2045,-5.2026,-5.211,-5.2117,-5.2139,-5.2191,-5.2156,-5.2206,-5.2188,-5.2237,-5.2229,-5.231,-5.2322,-5.2322,-5.2318,-5.2324,-5.2324,-5.234,-5.2329,-5.2309,-5.2308,-5.2307,-5.2306,0,-5.2003,-5.1998,-5.2085,-5.2105,-5.2111,-5.2172,-5.2188,-5.2236,-5.2236,-5.2303,-5.2317,-5.2317,-5.2373,-5.2366,-5.2428,-5.2423,-5.2524,-5.251,-5.2515,-5.2511,-5.2581,-5.2574,-5.2809,-5.2839,-5.2631,-5.2633,-5.2635,0,-5.2103,-5.2161,-5.2186,-5.2219,-5.2235,-5.2288,-5.2319,-5.2303,-5.2337,-5.2373,-5.2417,-5.247,-5.2512,-5.2604,-5.2609,-5.2657,-5.2643,-5.2722,-5.265,-5.2654,-5.2643,-5.2639,-5.2645,-5.2736,-5.2738,-5.274,-5.2742,0,-5.2282,-5.2278,-5.2323,-5.237,-5.2407,-5.2443,-5.2474,-5.2503,-5.2491,-5.253,-5.2588,-5.262,-5.2685,-5.2738,-5.2783,-5.2797,-5.2768,-5.2765,-5.2783,-5.2789,-5.2789,-5.2789,-5.2552,-5.2759,-5.2757,-5.2756,-5.2755,-5.2754,-5.2413,-5.2462,-5.2488,-5.2541,-5.2563,-5.2595,-5.2641,-5.2648,-5.2695,-5.2746,-5.2735,-5.28,-5.2827,-5.2885,-5.2904,-5.2955,-5.2926,-5.2953,-5.2959,-5.2966,-5.2974,-5.2783,-5.2964,-5.2963,-5.2963,-5.2962,-5.2962,0,-5.2589,-5.2604,-5.2653,-5.2699,-5.2741,-5.2712,-5.2746,-5.2783,-5.284,-5.2868,-5.291,-5.2977,-5.3029,-5.304,-5.309,-5.3129,-5.3117,-5.3142,-5.3138,-5.3142,-5.2997,-5.2976,-5.3151,-5.3151,-5.3151,-5.3151,-5.3151,-5.3151,-5.2685,-5.2767,-5.2766,-5.2859,-5.2874,-5.2937,-5.296,-5.2989,-5.3011,-5.3087,-5.313,-5.3138,-5.316,-5.3211,-5.3258,-5.326,-5.328,-5.3311,-5.3307,-5.3171,-5.3152,-5.3134,-5.3114,-5.3315,-5.3316,-5.3448,-5.3449,-5.345]},{"header":{"parameterUnit":"m.s-1","parameterCategory":1,"la1":30.2991,"la2":30.254,"lo1":-89.0895,"lo2":-89.0444,"dy":0.0017,"dx":0.0017,"nx":28,"ny":28,"refTime":"2024-12-25T09:00:00:Z","depth":0,"parameterNumber":3,"parameterNumberName":"V-component_of_WINDS"},"data":[0,0,0,0,0,0,0,0,0,0,0,0,0,0,0,0,0,0,0,0,0,0,0,0,0,0,0,0,0,0,0,0,0,0,0,0,0,0,0,0,0,0,0,0,0,0,0,0,0,0,0,0,0,0,0,0,0,0,0.6602,0.6602,0,0.6626,0.6626,0.6626,0.6605,0.6604,0.6603,0.6602,0.6627,0.6628,0.663,0,0,0,0,0,0,0,0,0,0,0,0,0,0.6542,0.6543,0.6602,0.6602,0.6603,0.6626,0.6626,0.6626,0.6605,0.6604,0.6603,0.6602,0.6626,0.6628,0.663,0,0,0,0,0,0,0,0,0,0,0,0,0,0.6567,0.6544,0.6602,0.6595,0.6594,0.6626,0.6626,0.6626,0.6605,0.6604,0.6603,0.6601,0.6626,0.6628,0.663,0.667,0,0,0.6637,0.6638,0,0,0,0,0,0,0,0,0.6566,0.6569,0.6596,0.6595,0.6595,0.6611,0.6614,0.6641,0.6605,0.6601,0.6602,0.6601,0.6623,0.6625,0.6632,0.6671,0.6672,0.6637,0.6638,0.6639,0.664,0,0,0,0,0,0,0,0.6564,0.6568,0.6611,0.6596,0.6596,0.6592,0.6594,0.6619,0.6619,0.6601,0.66,0.6603,0.6622,0.663,0.6633,0.6672,0.6637,0.6639,0.664,0.6641,0.6749,0.675,0,0,0,0,0,0,0.6563,0.6567,0.6611,0.6612,0.6577,0.6594,0.6596,0.6607,0.6619,0.6619,0.6604,0.6602,0.6627,0.663,0.6633,0.6683,0.6639,0.6641,0.6642,0.6747,0.6749,0.6751,0,0,0,0,0,0,0.6562,0.6567,0.661,0.6589,0.6594,0.6596,0.6609,0.6608,0.6616,0.6621,0.6621,0.6612,0.6626,0.663,0.6662,0.6683,0.6642,0.6644,0.6745,0.6748,0.675,0.6781,0,0,0,0,0,0,0.656,0.6566,0.658,0.659,0.6596,0.6637,0.661,0.661,0.662,0.6617,0.6628,0.6629,0.6625,0.6659,0.6664,0.6686,0.6646,0.6743,0.6746,0.6749,0.6778,0.6784,0.6789,0,0,0,0,0,0.6558,0.6588,0.6581,0.6587,0.6613,0.6638,0.6641,0.6637,0.6622,0.6637,0.664,0.6628,0.668,0.6662,0.6668,0.6691,0.6742,0.6746,0.6749,0.6776,0.6783,0.6789,0,0,0,0,0,0,0.658,0.6588,0.6582,0.6615,0.6626,0.6634,0.6652,0.6644,0.666,0.6657,0.6651,0.6654,0.6687,0.6692,0.6671,0.6732,0.6709,0.6714,0.6727,0.6734,0.674,0.6738,0.6648,0,0,0,0,0,0.6589,0.6608,0.6614,0.6643,0.665,0.665,0.6661,0.6657,0.6668,0.6673,0.6678,0.669,0.6709,0.6722,0.674,0.6779,0.6783,0.6798,0.6804,0.6808,0.6813,0.6837,0.6845,0.6762,0.6762,0.6762,0,0,0.6607,0.6614,0.6626,0.6648,0.6656,0.6678,0.6654,0.6676,0.6693,0.6676,0.6707,0.6712,0.6725,0.6761,0.6777,0.6766,0.6837,0.6813,0.6816,0.6818,0.6842,0.6849,0.6856,0.6765,0.6764,0.6764,0,0,0.6652,0.6658,0.6684,0.6694,0.6707,0.6708,0.6714,0.6725,0.6728,0.6758,0.6747,0.6767,0.68,0.681,0.682,0.6874,0.6864,0.688,0.6909,0.6933,0.6939,0.6945,0.6966,0.6974,0.6884,0.6884,0.6884,0,0.6673,0.6703,0.6699,0.6723,0.6735,0.6722,0.675,0.6759,0.6777,0.6786,0.6773,0.6817,0.6824,0.6864,0.6878,0.6886,0.6895,0.6878,0.6939,0.6944,0.695,0.697,0.6978,0.6886,0.6886,0.6885,0.6885,0,0.673,0.6752,0.6772,0.6791,0.6804,0.683,0.6832,0.6846,0.6842,0.6845,0.6879,0.6888,0.6909,0.6918,0.6914,0.6959,0.6952,0.6939,0.6916,0.696,0.6979,0.6986,0.6889,0.6888,0.6887,0.6887,0,0,0.6786,0.6806,0.6813,0.6823,0.6839,0.6856,0.6883,0.6904,0.6918,0.6932,0.6956,0.6986,0.6975,0.6986,0.6983,0.7004,0.7049,0.6989,0.699,0.7002,0.7103,0.7114,0.7122,0.7044,0.7045,0.7046,0.7103,0,0.6833,0.6879,0.6878,0.6922,0.6943,0.6934,0.6958,0.6971,0.6975,0.6995,0.7001,0.7023,0.7006,0.7013,0.7033,0.704,0.707,0.7035,0.7067,0.7068,0.7065,0.7132,0.7142,0.7195,0.711,0.7111,0.7112,0,0.6892,0.691,0.6956,0.6972,0.6981,0.7002,0.7024,0.7042,0.7058,0.7061,0.7075,0.707,0.71,0.7077,0.7119,0.7095,0.7109,0.7114,0.7116,0.7119,0.7093,0.7138,0.7211,0.722,0.7123,0.7122,0.7122,0,0.6931,0.6967,0.7,0.7008,0.7027,0.7043,0.7051,0.7066,0.708,0.7099,0.7109,0.7131,0.7143,0.7162,0.7164,0.7146,0.7207,0.7183,0.7211,0.7211,0.7224,0.7224,0.7302,0.7231,0.7231,0.7231,0.7231,0,0.6983,0.7013,0.7018,0.7038,0.7072,0.7072,0.7105,0.7112,0.7126,0.7149,0.7142,0.7164,0.7165,0.7189,0.719,0.7227,0.7232,0.7236,0.7236,0.7237,0.7237,0.7246,0.7243,0.7233,0.7233,0.7232,0.7232,0,0.7032,0.7037,0.7073,0.7088,0.7093,0.7118,0.7132,0.7152,0.7158,0.7187,0.7194,0.7202,0.723,0.7234,0.7265,0.7267,0.7311,0.7307,0.7306,0.7306,0.7334,0.7332,0.7422,0.7435,0.7355,0.7355,0.7356,0,0.7065,0.7088,0.7107,0.7123,0.7132,0.7156,0.7172,0.7173,0.719,0.7212,0.7231,0.7258,0.7279,0.7324,0.7333,0.7359,0.7356,0.7386,0.7359,0.7361,0.7359,0.7358,0.7361,0.7391,0.7392,0.7392,0.7393,0,0.7125,0.7127,0.7149,0.7173,0.7192,0.7211,0.7228,0.7242,0.7246,0.7265,0.7294,0.7311,0.7345,0.7372,0.7398,0.7408,0.7403,0.7401,0.741,0.7411,0.741,0.7413,0.7321,0.7399,0.7399,0.7398,0.7398,0.7397,0.7168,0.7189,0.7207,0.7233,0.7247,0.7265,0.7286,0.7295,0.7319,0.7347,0.7347,0.7379,0.7398,0.7432,0.7444,0.7471,0.7461,0.7472,0.7475,0.7478,0.7482,0.7406,0.7475,0.7475,0.7475,0.7474,0.7474,0,0.7229,0.7241,0.7265,0.7291,0.7312,0.7305,0.7326,0.7344,0.7373,0.7391,0.7413,0.7448,0.7476,0.7489,0.7517,0.7536,0.7534,0.7543,0.7542,0.7546,0.7488,0.7479,0.7544,0.7544,0.7544,0.7544,0.7544,0.7544,0.7263,0.7299,0.7304,0.7349,0.736,0.7392,0.7405,0.7422,0.7437,0.7476,0.75,0.7509,0.7526,0.7556,0.7582,0.7585,0.7597,0.7608,0.761,0.7556,0.7549,0.7542,0.7534,0.761,0.761,0.7665,0.7666,0.7666]}]]